Voltar ao catálogo

COSMOS 2145

AtivoNavegaçãoPO
NORAD 21301·PAYLOAD·🇷🇺 Russia

Lançado May 16, 1991 de Plesetsk Cosmodrome

Loading…

Próximas Passagens (próximas 24 horas)

TLE

AtualizadoSource: Space-Track

Época: Sep 14, 2026, 08:44 UTC

1 21301U 91033C   26257.36449859 -.00000004  00000-0 -82736-4 0  9999
2 21301  82.5617 250.1548 0007244 244.8463 115.1878 12.63218507628766

Acompanhe COSMOS 2145 em tempo real com AllMySat

Download on the App Store